Regional Weather Roundup
Issued by NWS

Home | Current Version | Previous Version | Graphics & Text | Print | Product List | Glossary On
Versions: 1 2 3 4 5 6 7 8 9 10 11 12 13 14 15 16 17 18 19 20 21 22 23 24 25 26 27 28 29 30 31 32 33 34 35 36 37 38 39 40 41 42 43 44 45 46 47 48 49 50
000
ASUS45 KBOU 290707
RWRCO

WEATHER ROUNDUP FOR COLORADO
NATIONAL WEATHER SERVICE DENVER/BOULDER CO
1200 AM MST SAT NOV 29 2014

NOTE: "FAIR" INDICATES FEW OR NO CLOUDS BELOW 12000 FEET WITH NO
SIGNIFICANT WEATHER AND/OR OBSTRUCTIONS TO VISIBILITY.

COZ001>005-013-030-031-290800-
...NORTHWEST COLORADO...

CITY           SKY/WX    TMP DP  RH WIND       PRES   REMARKS
CRAIG          CLEAR     26  18  71 SE7       29.90F WCI  18
HAYDEN         CLEAR     32  18  55 E9        29.90F WCI  24
MEEKER         CLEAR     45  16  31 SW7       29.92F
MOUNT WERNER   NOT AVBL
STEAMBOAT SPGS CLEAR     25  19  80 CALM      29.92F
WALDEN         CLEAR     32  14  47 S15       29.90F WCI  22
$$

COZ006>008-011-290800-
...WEST CENTRAL VALLEYS...

CITY           SKY/WX    TMP DP  RH WIND       PRES   REMARKS
GRAND JUNCTION CLEAR     32  22  66 E3        29.95F
MONTROSE       CLEAR     28  16  60 SE7       30.00F WCI  21
EAGLE          CLEAR     27  21  80 CALM      30.01F
RIFLE          CLEAR     27  23  85 CALM      29.98F
DELTA          CLEAR     29  21  69 CALM      29.99F
NUCLA          CLEAR     36  14  41 E9        30.04F
$$

COZ017>023-064>068-290800-
...SOUTHWEST COLORADO...

CITY           SKY/WX    TMP DP  RH WIND       PRES   REMARKS
DURANGO        PTCLDY    28  15  58 N5        30.08F WCI  23
CORTEZ         CLEAR     23  14  68 E5        30.05F WCI  17
PAGOSA SPRINGS PTCLDY    27  13  57 CALM      30.12F
TELLURIDE      PTCLDY    35   7  30 E5        30.16S WCI  31
WOLF CREEK PAS PTCLDY    28   3  34 MISG      30.22F
$$

COZ009-010-012-014-032>034-037-058>063-290800-
...CENTRAL COLORADO...

CITY           SKY/WX    TMP DP  RH WIND       PRES   REMARKS
ASPEN          CLEAR     29  13  51 S10       30.00F WCI  20
BUENA VISTA    CLEAR     46  -1  14 S10G26    29.98F
COPPER MTN     PTCLDY    34   0  23 S21G26    30.12F WCI  22
BERTHOUD PASS  NOT AVBL
COTTONWOOD PAS CLEAR     43 -11  10 W28G46    30.02F
GUNNISON       PTCLDY    14   7  73 CALM      30.12S
KREMMLING      CLEAR     37  14  38 W17G25    29.94F
LEADVILLE      CLEAR     25   3  38 E9        30.05F WCI  15
MONARCH PASS   PTCLDY    28   1  31 W39G45    30.24F WCI  11
SALIDA         CLEAR     47   4  17 S8        30.06F
SUNLIGHT       CLEAR     30  14  51 S3        30.08F
WILKERSON PASS CLEAR     32  -2  23 W15G25    30.06F WCI  22
$$

COZ069>075-290800-
...SAN LUIS VALLEY/SANGRE DE CRISTO MOUNTAINS...

CITY           SKY/WX    TMP DP  RH WIND       PRES   REMARKS
ALAMOSA        PTCLDY    21   5  50 VRB5      30.05F WCI  15
LA VETA PASS   PTCLDY    37   3  23 S18G40    30.03F
SAGUACHE       PTCLDY    27  14  59 NW10      30.07F WCI  17
$$

COZ035-036-038>040-290800-
...NORTHERN COLORADO FRONT RANGE...

CITY           SKY/WX    TMP DP  RH WIND       PRES   REMARKS
DENVER INTL AP CLOUDY    42  15  33 S9G18     29.77F
DMNS CITY PARK   N/A     46  11  24 SE8       29.77F
AURORA         MOCLDY    44  12  28 S13       29.79F
FRONT RANGE AP CLOUDY    43  19  39 S15       29.79F
ERIE MUNI ARPT PTCLDY    58   5  11 W9G16     29.75F
BOULDER MUN AP PTCLDY    59  10  14 SW14G24   29.74F
CENTENNIAL     PTCLDY    47   9  21 SE8       29.80F
BROOMFIELD     PTCLDY    52  10  19 SE3       29.78F
FORT COLLINS   CLOUDY    52  12  20 SE7       29.75S
LONGMONT       CLOUDY    63   8  11 W17G26    29.75F
$$

COZ041-046-047-076>085-087-088-290800-
...PIKES PEAK/PALMER DIVIDE AND SOUTHERN FOOTHILLS...

CITY           SKY/WX    TMP DP  RH WIND       PRES   REMARKS
COLO. SPRINGS  MOCLDY    50   6  16 VRB3      29.84F
A. F. ACADEMY  CLEAR     50   1  13 NW14      29.87F
ELLICOTT       NOT AVBL
FALCON         NOT AVBL
FORT CARSON    PTCLDY    45   8  21 S3        29.82F
LIMON          MOCLDY    33  14  45 N5        29.80F WCI  29
MONUMENT HILL  PTCLDY    37   7  28 W8        29.87S
TRINIDAD       MOCLDY    43  16  33 W13       29.86F
$$

COZ042>045-048>051-090-091-290800-
...NORTHEAST COLORADO...

CITY           SKY/WX    TMP DP  RH WIND       PRES   REMARKS
GREELEY ARPT   CLOUDY    43  18  36 SW7       29.74F
AKRON          CLOUDY    42  23  46 W15       29.72F
BURLINGTON     MOCLDY    42  14  32 W9        29.71F
WRAY           MOCLDY    33  24  69 W6        29.69F WCI  28
STERLING       CLOUDY    36  30  80 SW5       29.70F
HOLYOKE        MOCLDY    34  27  75 W8        29.69F WCI  27
FORT MORGAN    CLOUDY    42  21  42 NW12      29.73F
$$

COZ086-089-092>099-290800-
...SOUTHEAST COLORADO...

CITY           SKY/WX    TMP DP  RH WIND       PRES   REMARKS
PUEBLO         PTCLDY    38  19  46 SE3       29.80F
LA JUNTA       MOCLDY    49  18  29 W17       29.77F
LAMAR          MOCLDY    44  19  36 SW10      29.73F
SPRINGFIELD      N/A     45  13  27 NW12      29.77F
$$


USA.gov is the U.S. government's official web portal to all federal, state and local government web resources and services.